Location: Bartlow
(52.0833°N, 0.3167°E)
Time: 04:45:12
(UTC+00:00)

SL-24 DEB - Pass Details

Date: 26 September 2023
Orbit: 654 x 688 km, 92.0° (Epoch: 29 November)

Event Time Altitude Azimuth Distance (km) Brightness Sun altitude
Exits shadow 03:37:25 44° 213° (SSW) 944 4.6 -20.6°
Maximum altitude 03:38:38 60° 268° (W) 788 4.2 -20.4°
Drops below altitude 10° 03:43:21 10° 349° (N) 2,157 7.0 -19.8°
Sets 03:45:40 0° 353° (N) 3,081 7.9 -19.5°
